Simultaneous Nadir Overpasses (SNOs) Predictions

Prediction of SNOs between GOES-15 and NPP Satellite Orbit:

Table of predicted SNOs for the next 14.0 days since TLE Epoch: 10/3/2014
Index Date Time (GOES-15) GOES-15 Lat,Lon NPP Lat,Lon Distance(km) Time Diff (sec)
1 10/03/2014 22:36:21 -0.24,-135.34 -0.40,-135.98 73.47 80
2 10/04/2014 22:20:19 -0.26,-135.34 0.63,-131.46 443.19 80
3 10/06/2014 10:39:29 0.23,-135.34 0.53,-136.74 158.94 80
4 10/07/2014 10:23:26 0.24,-135.34 -0.45,-132.20 357.27 80
5 10/08/2014 22:42:46 -0.21,-135.34 -0.68,-137.53 248.30 80
6 10/09/2014 22:26:42 -0.23,-135.34 0.31,-133.00 267.95 80
7 10/11/2014 10:45:53 0.20,-135.34 0.85,-138.27 334.46 80
8 10/12/2014 10:29:49 0.21,-135.33 -0.14,-133.74 181.13 80
9 10/13/2014 22:49:09
